Time,TemperatureF,DewpointF,PressureIn,WindDirection,WindDirectionDegrees,WindSpeedMPH,WindSpeedGustMPH,Humidity,HourlyPrecipIn,Conditions,Clouds,dailyrainin,SoftwareType,DateUTC
2013-04-11 00:00:00,63.2,57.3,30.04,SSE,155,0.0,0.0,81,0.00,,,0.00,Wunderground v.1.15,2013-04-11 04:00:00,
2013-04-11 00:02:00,63.1,57.5,30.04,SSE,155,0.0,0.0,82,0.00,,,0.00,Wunderground v.1.15,2013-04-11 04:02:00,
2013-04-11 00:08:00,62.9,57.3,30.03,SSE,155,0.0,0.0,82,0.00,,,0.00,Wunderground v.1.15,2013-04-11 04:08:00,
2013-04-11 00:11:00,62.8,57.2,30.03,SSE,155,0.0,0.0,82,0.00,,,0.00,Wunderground v.1.15,2013-04-11 04:11:00,
2013-04-11 00:16:00,62.5,57.3,30.04,SSE,155,0.0,0.0,83,0.00,,,0.00,Wunderground v.1.15,2013-04-11 04:16:00,
2013-04-11 00:22:00,62.2,57.3,30.04,SSE,155,0.0,0.0,84,0.00,,,0.00,Wunderground v.1.15,2013-04-11 04:22:00,
2013-04-11 00:27:00,61.9,57.0,30.04,SSE,155,0.0,0.0,84,0.00,,,0.00,Wunderground v.1.15,2013-04-11 04:27:00,
2013-04-11 00:33:00,61.7,57.1,30.04,SSE,155,0.0,0.0,85,0.00,,,0.00,Wunderground v.1.15,2013-04-11 04:33:00,
2013-04-11 00:39:00,61.5,56.9,30.03,SSE,155,0.0,0.0,85,0.00,,,0.00,Wunderground v.1.15,2013-04-11 04:39:00,
2013-04-11 00:44:00,61.3,56.8,30.03,SSE,155,0.0,0.0,85,0.00,,,0.00,Wunderground v.1.15,2013-04-11 04:44:00,
2013-04-11 00:50:00,61.3,57.1,30.03,SSE,155,0.0,0.0,86,0.00,,,0.00,Wunderground v.1.15,2013-04-11 04:50:00,
2013-04-11 00:56:00,61.4,57.2,30.03,SSE,155,0.0,0.0,86,0.00,,,0.00,Wunderground v.1.15,2013-04-11 04:56:00,
2013-04-11 01:01:00,61.5,56.9,30.03,SSE,155,0.0,0.0,85,0.00,,,0.00,Wunderground v.1.15,2013-04-11 05:01:00,
2013-04-11 01:07:00,61.8,57.2,30.03,SSE,155,0.0,0.0,85,0.00,,,0.00,Wunderground v.1.15,2013-04-11 05:07:00,
2013-04-11 01:12:00,62.1,57.5,30.02,SSE,155,0.0,0.0,85,0.00,,,0.00,Wunderground v.1.15,2013-04-11 05:12:00,
2013-04-11 01:18:00,62.4,57.5,30.02,SSE,155,0.0,0.0,84,0.00,,,0.00,Wunderground v.1.15,2013-04-11 05:18:00,
2013-04-11 01:23:00,62.6,57.4,30.02,SSE,155,0.0,0.0,83,0.00,,,0.00,Wunderground v.1.15,2013-04-11 05:23:00,
2013-04-11 01:29:00,62.8,57.6,30.02,SSE,155,0.0,0.0,83,0.00,,,0.00,Wunderground v.1.15,2013-04-11 05:29:00,
2013-04-11 01:34:00,62.9,57.3,30.02,SSE,155,0.0,0.0,82,0.00,,,0.00,Wunderground v.1.15,2013-04-11 05:34:00,
2013-04-11 01:40:00,63.0,57.4,30.03,SSE,155,0.0,0.0,82,0.00,,,0.00,Wunderground v.1.15,2013-04-11 05:40:00,
2013-04-11 01:47:00,63.0,57.4,30.03,SSE,155,0.0,0.0,82,0.00,,,0.00,Wunderground v.1.15,2013-04-11 05:47:00,
2013-04-11 01:52:00,62.7,57.1,30.03,SSE,155,0.0,0.0,82,0.00,,,0.00,Wunderground v.1.15,2013-04-11 05:52:00,
2013-04-11 01:58:00,62.4,57.2,30.03,SSE,155,0.0,0.0,83,0.00,,,0.00,Wunderground v.1.15,2013-04-11 05:58:00,
2013-04-11 02:03:00,62.2,57.0,30.03,SSE,155,0.0,0.0,83,0.00,,,0.00,Wunderground v.1.15,2013-04-11 06:03:00,
2013-04-11 02:08:00,62.0,57.1,30.03,SSE,155,0.0,0.0,84,0.00,,,0.00,Wunderground v.1.15,2013-04-11 06:08:00,
2013-04-11 02:13:00,61.8,56.9,30.02,SSE,155,0.0,0.0,84,0.00,,,0.00,Wunderground v.1.15,2013-04-11 06:13:00,
2013-04-11 02:18:00,61.5,56.6,30.02,SSE,155,0.0,1.0,84,0.00,,,0.00,Wunderground v.1.15,2013-04-11 06:18:00,
2013-04-11 02:23:00,61.3,56.4,30.02,SSE,155,0.0,0.0,84,0.00,,,0.00,Wunderground v.1.15,2013-04-11 06:23:00,
2013-04-11 02:28:00,61.1,56.6,30.02,SSE,155,0.0,0.0,85,0.00,,,0.00,Wunderground v.1.15,2013-04-11 06:28:00,
2013-04-11 02:33:00,60.9,56.4,30.01,SSE,155,0.0,0.0,85,0.00,,,0.00,Wunderground v.1.15,2013-04-11 06:33:00,
2013-04-11 02:38:00,60.6,56.4,30.01,SSE,155,0.0,0.0,86,0.00,,,0.00,Wunderground v.1.15,2013-04-11 06:38:00,
2013-04-11 02:43:00,60.5,56.3,30.01,SSE,155,0.0,1.0,86,0.00,,,0.00,Wunderground v.1.15,2013-04-11 06:43:00,
2013-04-11 02:48:00,60.3,56.4,30.01,SSE,155,0.0,1.0,87,0.00,,,0.00,Wunderground v.1.15,2013-04-11 06:48:00,
2013-04-11 02:53:00,60.1,56.2,30.01,SSE,155,0.0,1.0,87,0.00,,,0.00,Wunderground v.1.15,2013-04-11 06:53:00,
2013-04-11 02:58:00,59.9,56.3,30.01,SSE,155,0.0,1.0,88,0.00,,,0.00,Wunderground v.1.15,2013-04-11 06:58:00,
2013-04-11 03:03:00,59.7,56.1,30.01,SSE,155,0.0,1.0,88,0.00,,,0.00,Wunderground v.1.15,2013-04-11 07:03:00,
2013-04-11 03:08:00,59.6,56.0,30.00,SSE,155,0.0,1.0,88,0.00,,,0.00,Wunderground v.1.15,2013-04-11 07:08:00,
2013-04-11 03:13:00,59.4,55.8,30.01,SSE,155,0.0,1.0,88,0.00,,,0.00,Wunderground v.1.15,2013-04-11 07:13:00,
2013-04-11 03:18:00,59.3,55.7,30.00,SE,124,0.0,2.0,88,0.00,,,0.00,Wunderground v.1.15,2013-04-11 07:18:00,
2013-04-11 03:23:00,59.2,55.3,30.00,SE,124,0.0,0.0,87,0.00,,,0.00,Wunderground v.1.15,2013-04-11 07:23:00,
2013-04-11 03:28:00,59.2,55.3,30.00,SE,124,0.0,1.0,87,0.00,,,0.00,Wunderground v.1.15,2013-04-11 07:28:00,
2013-04-11 03:33:00,59.3,55.1,30.00,SE,124,0.0,0.0,86,0.00,,,0.00,Wunderground v.1.15,2013-04-11 07:33:00,
2013-04-11 03:38:00,59.4,55.2,30.00,East,97,0.0,2.0,86,0.00,,,0.00,Wunderground v.1.15,2013-04-11 07:38:00,
2013-04-11 03:43:00,59.7,55.5,29.99,East,97,0.0,1.0,86,0.00,,,0.00,Wunderground v.1.15,2013-04-11 07:43:00,
2013-04-11 03:48:00,60.0,55.5,30.00,ESE,106,0.0,1.0,85,0.00,,,0.00,Wunderground v.1.15,2013-04-11 07:48:00,
2013-04-11 03:53:00,60.4,55.5,30.00,SSE,167,1.0,2.0,84,0.00,,,0.00,Wunderground v.1.15,2013-04-11 07:53:00,
2013-04-11 03:58:00,60.7,55.5,30.00,SSE,167,0.0,2.0,83,0.00,,,0.00,Wunderground v.1.15,2013-04-11 07:58:00,
2013-04-11 04:03:00,60.9,55.7,29.99,SSE,167,0.0,0.0,83,0.00,,,0.00,Wunderground v.1.15,2013-04-11 08:03:00,
2013-04-11 04:08:00,61.0,55.5,29.99,SSE,167,0.0,0.0,82,0.00,,,0.00,Wunderground v.1.15,2013-04-11 08:08:00,
2013-04-11 04:13:00,61.1,55.6,29.99,SSE,167,0.0,0.0,82,0.00,,,0.00,Wunderground v.1.15,2013-04-11 08:13:00,
2013-04-11 04:18:00,61.3,55.8,29.98,SSE,166,0.0,4.0,82,0.00,,,0.00,Wunderground v.1.15,2013-04-11 08:18:00,
2013-04-11 04:23:00,61.5,55.6,29.99,SSE,165,0.0,2.0,81,0.00,,,0.00,Wunderground v.1.15,2013-04-11 08:23:00,
2013-04-11 04:28:00,61.7,55.8,29.99,SSE,165,0.0,2.0,81,0.00,,,0.00,Wunderground v.1.15,2013-04-11 08:28:00,
2013-04-11 04:33:00,61.9,56.0,29.99,South,173,1.0,2.0,81,0.00,,,0.00,Wunderground v.1.15,2013-04-11 08:33:00,
2013-04-11 04:38:00,62.1,55.9,29.99,SSE,153,1.0,3.0,80,0.00,,,0.00,Wunderground v.1.15,2013-04-11 08:38:00,
2013-04-11 04:43:00,62.3,56.0,29.99,SSE,165,0.0,3.0,80,0.00,,,0.00,Wunderground v.1.15,2013-04-11 08:43:00,
2013-04-11 04:49:00,62.4,56.1,29.99,South,169,0.0,4.0,80,0.00,,,0.00,Wunderground v.1.15,2013-04-11 08:49:00,
2013-04-11 04:54:00,62.4,56.1,29.99,South,171,0.0,3.0,80,0.00,,,0.00,Wunderground v.1.15,2013-04-11 08:54:00,
2013-04-11 04:59:00,62.2,56.3,29.99,South,171,0.0,3.0,81,0.00,,,0.00,Wunderground v.1.15,2013-04-11 08:59:00,
2013-04-11 05:04:00,62.0,56.4,30.00,South,169,0.0,2.0,82,0.00,,,0.00,Wunderground v.1.15,2013-04-11 09:04:00,
2013-04-11 05:09:00,61.8,56.2,29.99,South,169,0.0,2.0,82,0.00,,,0.00,Wunderground v.1.15,2013-04-11 09:09:00,
2013-04-11 05:14:00,61.7,56.1,29.99,South,169,0.0,1.0,82,0.00,,,0.00,Wunderground v.1.15,2013-04-11 09:14:00,
2013-04-11 05:19:00,61.5,56.3,29.99,SSE,167,1.0,2.0,83,0.00,,,0.00,Wunderground v.1.15,2013-04-11 09:19:00,
2013-04-11 05:24:00,61.4,55.9,29.99,SSE,167,0.0,0.0,82,0.00,,,0.00,Wunderground v.1.15,2013-04-11 09:24:00,
2013-04-11 05:29:00,61.1,55.9,29.99,SSE,167,0.0,1.0,83,0.00,,,0.00,Wunderground v.1.15,2013-04-11 09:29:00,
2013-04-11 05:34:00,60.6,55.4,30.00,SSE,167,0.0,0.0,83,0.00,,,0.00,Wunderground v.1.15,2013-04-11 09:34:00,
2013-04-11 05:39:00,60.2,55.3,30.00,SSE,167,0.0,0.0,84,0.00,,,0.00,Wunderground v.1.15,2013-04-11 09:39:00,
2013-04-11 05:44:00,59.9,55.4,30.00,SSE,167,0.0,0.0,85,0.00,,,0.00,Wunderground v.1.15,2013-04-11 09:44:00,
2013-04-11 05:49:00,59.6,55.4,30.00,SSE,167,0.0,0.0,86,0.00,,,0.00,Wunderground v.1.15,2013-04-11 09:49:00,
2013-04-11 05:54:00,59.3,55.1,30.00,SSE,167,0.0,0.0,86,0.00,,,0.00,Wunderground v.1.15,2013-04-11 09:54:00,
2013-04-11 05:59:00,59.0,54.8,30.00,SSE,167,0.0,0.0,86,0.00,,,0.00,Wunderground v.1.15,2013-04-11 09:59:00,
2013-04-11 06:04:00,58.8,54.9,30.00,SSE,167,0.0,0.0,87,0.00,,,0.00,Wunderground v.1.15,2013-04-11 10:04:00,
2013-04-11 06:09:00,58.8,54.9,30.00,SSE,167,0.0,0.0,87,0.00,,,0.00,Wunderground v.1.15,2013-04-11 10:09:00,
2013-04-11 06:14:00,58.7,54.8,30.00,SSE,167,0.0,0.0,87,0.00,,,0.00,Wunderground v.1.15,2013-04-11 10:14:00,
2013-04-11 06:19:00,58.5,55.0,30.00,SSE,167,0.0,0.0,88,0.00,,,0.00,Wunderground v.1.15,2013-04-11 10:19:00,
2013-04-11 06:24:00,58.3,54.8,30.00,SSE,167,0.0,0.0,88,0.00,,,0.00,Wunderground v.1.15,2013-04-11 10:24:00,
2013-04-11 06:29:00,58.2,54.7,30.00,SSE,167,0.0,1.0,88,0.00,,,0.00,Wunderground v.1.15,2013-04-11 10:29:00,
2013-04-11 06:34:00,58.0,54.8,30.00,SSE,167,0.0,0.0,89,0.00,,,0.00,Wunderground v.1.15,2013-04-11 10:34:00,
2013-04-11 06:39:00,58.0,54.8,30.00,SSE,167,0.0,0.0,89,0.00,,,0.00,Wunderground v.1.15,2013-04-11 10:39:00,
2013-04-11 06:44:00,58.0,54.8,30.00,SSE,167,0.0,0.0,89,0.00,,,0.00,Wunderground v.1.15,2013-04-11 10:44:00,
2013-04-11 06:49:00,58.0,54.8,30.01,SSE,167,0.0,0.0,89,0.00,,,0.00,Wunderground v.1.15,2013-04-11 10:49:00,
2013-04-11 06:54:00,57.9,55.0,30.01,SSE,167,0.0,0.0,90,0.00,,,0.00,Wunderground v.1.15,2013-04-11 10:54:00,
2013-04-11 06:59:00,57.9,55.0,30.01,SSE,167,0.0,0.0,90,0.00,,,0.00,Wunderground v.1.15,2013-04-11 10:59:00,
2013-04-11 07:04:00,57.9,55.0,30.01,SSE,167,0.0,0.0,90,0.00,,,0.00,Wunderground v.1.15,2013-04-11 11:04:00,
2013-04-11 07:09:00,58.0,55.1,30.01,SSE,167,0.0,0.0,90,0.00,,,0.00,Wunderground v.1.15,2013-04-11 11:09:00,
2013-04-11 07:14:00,58.0,55.1,30.01,SSE,167,0.0,0.0,90,0.00,,,0.00,Wunderground v.1.15,2013-04-11 11:14:00,
2013-04-11 07:19:00,58.0,55.1,30.01,SSE,167,0.0,0.0,90,0.00,,,0.00,Wunderground v.1.15,2013-04-11 11:19:00,
2013-04-11 07:24:00,58.0,55.4,30.01,SSE,167,0.0,1.0,91,0.00,,,0.00,Wunderground v.1.15,2013-04-11 11:24:00,
2013-04-11 07:29:00,58.0,55.4,30.01,SSE,167,0.0,1.0,91,0.00,,,0.00,Wunderground v.1.15,2013-04-11 11:29:00,
2013-04-11 07:34:00,58.1,55.5,30.01,SSE,167,0.0,0.0,91,0.00,,,0.00,Wunderground v.1.15,2013-04-11 11:34:00,
2013-04-11 07:39:00,58.2,55.6,30.01,SSE,167,0.0,1.0,91,0.00,,,0.00,Wunderground v.1.15,2013-04-11 11:39:00,
2013-04-11 07:44:00,58.5,55.9,30.01,SSE,167,0.0,0.0,91,0.00,,,0.00,Wunderground v.1.15,2013-04-11 11:44:00,
2013-04-11 07:49:00,58.8,56.2,30.01,SSE,167,0.0,0.0,91,0.00,,,0.00,Wunderground v.1.15,2013-04-11 11:49:00,
2013-04-11 07:55:00,58.8,56.2,30.01,SSE,167,0.0,1.0,91,0.00,,,0.00,Wunderground v.1.15,2013-04-11 11:55:00,
2013-04-11 08:00:00,58.8,55.9,30.01,SSE,167,0.0,1.0,90,0.00,,,0.00,Wunderground v.1.15,2013-04-11 12:00:00,
2013-04-11 08:05:00,58.9,56.3,30.01,SSE,167,0.0,0.0,91,0.00,,,0.00,Wunderground v.1.15,2013-04-11 12:05:00,
2013-04-11 08:10:00,59.2,56.6,30.01,SSE,167,0.0,0.0,91,0.00,,,0.00,Wunderground v.1.15,2013-04-11 12:10:00,
2013-04-11 08:15:00,59.4,56.5,30.01,SSE,167,0.0,0.0,90,0.00,,,0.00,Wunderground v.1.15,2013-04-11 12:15:00,
2013-04-11 08:20:00,59.6,56.7,30.01,SSE,167,0.0,0.0,90,0.00,,,0.00,Wunderground v.1.15,2013-04-11 12:20:00,
2013-04-11 08:25:00,59.8,56.9,30.02,SSE,167,0.0,0.0,90,0.00,,,0.00,Wunderground v.1.15,2013-04-11 12:25:00,
2013-04-11 08:30:00,59.9,57.0,30.02,SSE,167,0.0,0.0,90,0.00,,,0.00,Wunderground v.1.15,2013-04-11 12:30:00,
2013-04-11 08:35:00,60.1,57.2,30.02,SSE,167,0.0,0.0,90,0.00,,,0.00,Wunderground v.1.15,2013-04-11 12:35:00,
2013-04-11 08:40:00,60.2,57.3,30.01,SSE,167,0.0,0.0,90,0.00,,,0.00,Wunderground v.1.15,2013-04-11 12:40:00,
2013-04-11 08:46:00,60.4,57.5,30.01,SSE,167,0.0,2.0,90,0.00,,,0.00,Wunderground v.1.15,2013-04-11 12:46:00,
2013-04-11 08:51:00,60.6,57.7,30.01,South,171,1.0,3.0,90,0.00,,,0.00,Wunderground v.1.15,2013-04-11 12:51:00,
2013-04-11 08:56:00,60.8,57.5,30.01,South,169,1.0,3.0,89,0.00,,,0.00,Wunderground v.1.15,2013-04-11 12:56:00,
2013-04-11 09:01:00,61.0,57.7,30.01,South,170,3.0,3.0,89,0.00,,,0.00,Wunderground v.1.15,2013-04-11 13:01:00,
2013-04-11 09:06:00,61.1,57.8,30.01,South,175,0.0,3.0,89,0.00,,,0.00,Wunderground v.1.15,2013-04-11 13:06:00,
2013-04-11 09:11:00,61.2,58.2,30.01,South,175,0.0,1.0,90,0.00,,,0.00,Wunderground v.1.15,2013-04-11 13:11:00,
2013-04-11 09:16:00,61.4,58.4,30.01,South,175,0.0,1.0,90,0.00,,,0.00,Wunderground v.1.15,2013-04-11 13:16:00,
2013-04-11 09:22:00,61.5,58.2,30.01,South,175,0.0,1.0,89,0.00,,,0.00,Wunderground v.1.15,2013-04-11 13:22:00,
2013-04-11 09:27:00,61.7,58.4,30.01,South,175,0.0,1.0,89,0.00,,,0.00,Wunderground v.1.15,2013-04-11 13:27:00,
2013-04-11 09:32:00,62.1,58.5,30.01,South,175,1.0,2.0,88,0.00,,,0.00,Wunderground v.1.15,2013-04-11 13:32:00,
2013-04-11 09:37:00,62.3,58.7,30.01,South,171,0.0,3.0,88,0.00,,,0.00,Wunderground v.1.15,2013-04-11 13:37:00,
2013-04-11 09:42:00,62.7,59.1,30.01,South,178,1.0,1.0,88,0.00,,,0.00,Wunderground v.1.15,2013-04-11 13:42:00,
2013-04-11 09:47:00,63.1,59.2,30.01,South,171,0.0,4.0,87,0.00,,,0.00,Wunderground v.1.15,2013-04-11 13:47:00,
2013-04-11 09:52:00,63.6,60.0,30.01,SSE,166,4.0,4.0,88,0.00,,,0.00,Wunderground v.1.15,2013-04-11 13:52:00,
2013-04-11 09:57:00,64.1,59.8,30.00,South,176,0.0,4.0,86,0.00,,,0.00,Wunderground v.1.15,2013-04-11 13:57:00,
2013-04-11 10:02:00,64.8,60.5,30.00,South,190,0.0,1.0,86,0.00,,,0.00,Wunderground v.1.15,2013-04-11 14:02:00,
2013-04-11 10:07:00,65.5,60.5,30.00,South,190,0.0,2.0,84,0.00,,,0.00,Wunderground v.1.15,2013-04-11 14:07:00,
2013-04-11 10:12:00,66.1,60.1,30.00,SSE,159,0.0,3.0,81,0.00,,,0.00,Wunderground v.1.15,2013-04-11 14:12:00,
2013-04-11 10:17:00,66.5,60.1,30.00,SSE,148,1.0,3.0,80,0.00,,,0.00,Wunderground v.1.15,2013-04-11 14:17:00,
2013-04-11 10:22:00,66.7,60.0,30.00,SSE,168,1.0,2.0,79,0.00,,,0.00,Wunderground v.1.15,2013-04-11 14:22:00,
2013-04-11 10:28:00,67.2,60.5,29.99,SSE,163,0.0,3.0,79,0.00,,,0.00,Wunderground v.1.15,2013-04-11 14:28:00,
2013-04-11 10:33:00,67.5,61.1,29.99,SSE,157,1.0,2.0,80,0.00,,,0.00,Wunderground v.1.15,2013-04-11 14:33:00,
2013-04-11 10:38:00,67.6,59.8,30.00,WNW,294,0.0,2.0,76,0.00,,,0.00,Wunderground v.1.15,2013-04-11 14:38:00,
2013-04-11 10:43:00,67.7,60.2,30.00,NNW,340,1.0,1.0,77,0.00,,,0.00,Wunderground v.1.15,2013-04-11 14:43:00,
2013-04-11 10:48:00,67.8,60.3,30.00,South,169,1.0,2.0,77,0.00,,,0.00,Wunderground v.1.15,2013-04-11 14:48:00,
2013-04-11 10:53:00,67.8,60.0,30.00,East,83,0.0,1.0,76,0.00,,,0.00,Wunderground v.1.15,2013-04-11 14:53:00,
2013-04-11 10:58:00,67.8,60.0,30.00,South,182,0.0,3.0,76,0.00,,,0.00,Wunderground v.1.15,2013-04-11 14:58:00,
2013-04-11 11:03:00,68.1,61.0,30.00,South,184,1.0,2.0,78,0.00,,,0.00,Wunderground v.1.15,2013-04-11 15:03:00,
2013-04-11 11:08:00,68.5,60.6,30.00,SW,227,1.0,4.0,76,0.00,,,0.00,Wunderground v.1.15,2013-04-11 15:08:00,
2013-04-11 11:13:00,68.9,60.6,29.99,SW,227,0.0,2.0,75,0.00,,,0.00,Wunderground v.1.15,2013-04-11 15:13:00,
2013-04-11 11:18:00,69.3,61.0,29.99,SW,227,0.0,2.0,75,0.00,,,0.00,Wunderground v.1.15,2013-04-11 15:18:00,
2013-04-11 11:23:00,69.7,60.7,29.99,NE,42,0.0,2.0,73,0.00,,,0.00,Wunderground v.1.15,2013-04-11 15:23:00,
2013-04-11 11:28:00,69.9,60.5,29.99,SSW,209,0.0,4.0,72,0.00,,,0.00,Wunderground v.1.15,2013-04-11 15:28:00,
2013-04-11 11:33:00,70.0,60.2,29.99,WSW,240,0.0,3.0,71,0.00,,,0.00,Wunderground v.1.15,2013-04-11 15:33:00,
2013-04-11 11:38:00,70.3,60.1,29.99,SSW,211,1.0,3.0,70,0.00,,,0.00,Wunderground v.1.15,2013-04-11 15:38:00,
2013-04-11 11:43:00,70.6,59.5,29.99,WSW,255,0.0,4.0,68,0.00,,,0.00,Wunderground v.1.15,2013-04-11 15:43:00,
2013-04-11 11:48:00,70.9,60.6,29.98,West,265,3.0,4.0,70,0.00,,,0.00,Wunderground v.1.15,2013-04-11 15:48:00,
2013-04-11 11:53:00,70.9,60.2,29.98,SW,219,2.0,5.0,69,0.00,,,0.00,Wunderground v.1.15,2013-04-11 15:53:00,
2013-04-11 11:58:00,70.9,60.6,29.99,West,268,3.0,5.0,70,0.00,,,0.00,Wunderground v.1.15,2013-04-11 15:58:00,
2013-04-11 12:03:00,70.7,60.4,29.99,SW,228,1.0,3.0,70,0.00,,,0.00,Wunderground v.1.15,2013-04-11 16:03:00,
2013-04-11 12:08:00,70.7,60.4,29.99,NNE,32,0.0,3.0,70,0.00,,,0.00,Wunderground v.1.15,2013-04-11 16:08:00,
2013-04-11 12:13:00,70.9,60.2,29.99,South,189,0.0,3.0,69,0.00,,,0.00,Wunderground v.1.15,2013-04-11 16:13:00,
2013-04-11 12:18:00,71.2,60.1,29.98,WNW,283,0.0,4.0,68,0.00,,,0.00,Wunderground v.1.15,2013-04-11 16:18:00,
2013-04-11 12:23:00,71.4,59.0,29.98,West,274,1.0,2.0,65,0.00,,,0.00,Wunderground v.1.15,2013-04-11 16:23:00,
2013-04-11 12:28:00,71.5,59.1,29.97,SSW,209,2.0,5.0,65,0.00,,,0.00,Wunderground v.1.15,2013-04-11 16:28:00,
2013-04-11 12:33:00,71.7,59.3,29.98,West,267,0.0,4.0,65,0.00,,,0.00,Wunderground v.1.15,2013-04-11 16:33:00,
2013-04-11 12:38:00,72.1,58.8,29.97,NNW,342,3.0,5.0,63,0.00,,,0.00,Wunderground v.1.15,2013-04-11 16:38:00,
2013-04-11 12:43:00,72.2,59.8,29.97,WSW,257,1.0,5.0,65,0.00,,,0.00,Wunderground v.1.15,2013-04-11 16:43:00,
2013-04-11 12:48:00,72.7,59.4,29.97,SSE,151,2.0,5.0,63,0.00,,,0.00,Wunderground v.1.15,2013-04-11 16:48:00,
2013-04-11 12:53:00,73.3,60.4,29.96,SSW,198,3.0,4.0,64,0.00,,,0.00,Wunderground v.1.15,2013-04-11 16:53:00,
2013-04-11 12:58:00,73.5,59.7,29.96,SW,221,3.0,4.0,62,0.00,,,0.00,Wunderground v.1.15,2013-04-11 16:58:00,
2013-04-11 13:04:00,73.6,59.8,29.96,West,264,1.0,4.0,62,0.00,,,0.00,Wunderground v.1.15,2013-04-11 17:04:00,
2013-04-11 13:09:00,73.4,60.0,29.96,NW,304,2.0,6.0,63,0.00,,,0.00,Wunderground v.1.15,2013-04-11 17:09:00,
2013-04-11 13:14:00,73.5,59.7,29.96,NNE,17,0.0,3.0,62,0.00,,,0.00,Wunderground v.1.15,2013-04-11 17:14:00,
2013-04-11 13:19:00,73.7,60.3,29.95,NW,308,3.0,3.0,63,0.00,,,0.00,Wunderground v.1.15,2013-04-11 17:19:00,
2013-04-11 13:24:00,73.8,59.5,29.95,NW,304,1.0,4.0,61,0.00,,,0.00,Wunderground v.1.15,2013-04-11 17:24:00,
2013-04-11 13:29:00,73.7,60.8,29.95,South,182,6.0,11.0,64,0.00,,,0.00,Wunderground v.1.15,2013-04-11 17:29:00,
2013-04-11 13:34:00,73.9,59.1,29.94,South,175,2.0,9.0,60,0.00,,,0.00,Wunderground v.1.15,2013-04-11 17:34:00,
2013-04-11 13:39:00,74.4,59.6,29.94,WSW,242,2.0,9.0,60,0.00,,,0.00,Wunderground v.1.15,2013-04-11 17:39:00,
2013-04-11 13:44:00,74.5,60.2,29.94,WNW,286,2.0,7.0,61,0.00,,,0.00,Wunderground v.1.15,2013-04-11 17:44:00,
2013-04-11 13:49:00,74.7,59.9,29.93,South,182,2.0,7.0,60,0.00,,,0.00,Wunderground v.1.15,2013-04-11 17:49:00,
2013-04-11 13:54:00,74.9,60.1,29.93,West,271,1.0,3.0,60,0.00,,,0.00,Wunderground v.1.15,2013-04-11 17:54:00,
2013-04-11 13:59:00,75.0,59.7,29.93,West,261,0.0,3.0,59,0.00,,,0.00,Wunderground v.1.15,2013-04-11 17:59:00,
2013-04-11 14:04:00,75.0,60.6,29.93,NE,35,2.0,5.0,61,0.00,,,0.00,Wunderground v.1.15,2013-04-11 18:04:00,
2013-04-11 14:09:00,74.9,59.1,29.93,ESE,121,0.0,6.0,58,0.00,,,0.00,Wunderground v.1.15,2013-04-11 18:09:00,
2013-04-11 14:14:00,74.9,60.5,29.93,South,190,0.0,5.0,61,0.00,,,0.00,Wunderground v.1.15,2013-04-11 18:14:00,
2013-04-11 14:19:00,75.1,60.3,29.92,SSE,161,3.0,11.0,60,0.00,,,0.00,Wunderground v.1.15,2013-04-11 18:19:00,
2013-04-11 14:24:00,74.9,60.5,29.92,South,175,2.0,11.0,61,0.00,,,0.00,Wunderground v.1.15,2013-04-11 18:24:00,
2013-04-11 14:29:00,75.1,60.3,29.92,NW,324,1.0,11.0,60,0.00,,,0.00,Wunderground v.1.15,2013-04-11 18:29:00,
2013-04-11 14:34:00,75.2,59.4,29.92,WSW,254,1.0,4.0,58,0.00,,,0.00,Wunderground v.1.15,2013-04-11 18:34:00,
2013-04-11 14:39:00,75.0,59.7,29.92,NW,313,1.0,4.0,59,0.00,,,0.00,Wunderground v.1.15,2013-04-11 18:39:00,
2013-04-11 14:44:00,74.6,59.3,29.92,SSE,150,3.0,11.0,59,0.00,,,0.00,Wunderground v.1.15,2013-04-11 18:44:00,
2013-04-11 14:49:00,74.2,59.9,29.91,SSW,194,0.0,11.0,61,0.00,,,0.00,Wunderground v.1.15,2013-04-11 18:49:00,
2013-04-11 14:54:00,74.1,60.2,29.91,NNE,20,1.0,2.0,62,0.00,,,0.00,Wunderground v.1.15,2013-04-11 18:54:00,
2013-04-11 14:59:00,74.1,60.2,29.91,SSE,166,2.0,7.0,62,0.00,,,0.00,Wunderground v.1.15,2013-04-11 18:59:00,
2013-04-11 15:04:00,73.9,59.6,29.92,SSE,165,2.0,9.0,61,0.00,,,0.00,Wunderground v.1.15,2013-04-11 19:04:00,
2013-04-11 15:09:00,73.7,59.9,29.92,South,173,4.0,9.0,62,0.00,,,0.00,Wunderground v.1.15,2013-04-11 19:09:00,
2013-04-11 15:14:00,73.5,60.6,29.92,WNW,286,0.0,7.0,64,0.00,,,0.00,Wunderground v.1.15,2013-04-11 19:14:00,
2013-04-11 15:19:00,73.8,60.4,29.91,NW,305,5.0,7.0,63,0.00,,,0.00,Wunderground v.1.15,2013-04-11 19:19:00,
2013-04-11 15:25:00,74.2,61.2,29.90,WSW,244,2.0,3.0,64,0.00,,,0.00,Wunderground v.1.15,2013-04-11 19:25:00,
2013-04-11 15:30:00,74.5,61.1,29.90,North,360,1.0,4.0,63,0.00,,,0.00,Wunderground v.1.15,2013-04-11 19:30:00,
2013-04-11 15:35:00,74.4,61.0,29.90,SSE,159,4.0,13.0,63,0.00,,,0.00,Wunderground v.1.15,2013-04-11 19:35:00,
2013-04-11 15:40:00,74.3,60.9,29.89,SSE,167,2.0,2.0,63,0.00,,,0.00,Wunderground v.1.15,2013-04-11 19:40:00,
2013-04-11 15:45:00,74.4,61.4,29.89,South,169,1.0,5.0,64,0.00,,,0.00,Wunderground v.1.15,2013-04-11 19:45:00,
2013-04-11 15:50:00,74.6,61.6,29.88,East,80,1.0,2.0,64,0.00,,,0.00,Wunderground v.1.15,2013-04-11 19:50:00,
2013-04-11 15:55:00,74.6,61.2,29.87,South,171,4.0,4.0,63,0.00,,,0.00,Wunderground v.1.15,2013-04-11 19:55:00,
2013-04-11 16:00:00,74.6,61.6,29.87,WSW,254,2.0,3.0,64,0.00,,,0.00,Wunderground v.1.15,2013-04-11 20:00:00,
2013-04-11 16:05:00,74.6,61.2,29.87,WNW,291,1.0,3.0,63,0.00,,,0.00,Wunderground v.1.15,2013-04-11 20:05:00,
2013-04-11 16:10:00,74.5,61.1,29.87,South,182,2.0,2.0,63,0.00,,,0.00,Wunderground v.1.15,2013-04-11 20:10:00,
2013-04-11 16:15:00,74.5,61.5,29.86,NE,42,0.0,3.0,64,0.00,,,0.00,Wunderground v.1.15,2013-04-11 20:15:00,
2013-04-11 16:20:00,74.5,61.5,29.86,South,178,1.0,1.0,64,0.00,,,0.00,Wunderground v.1.15,2013-04-11 20:20:00,
2013-04-11 16:27:00,74.2,61.2,29.86,South,186,0.0,8.0,64,0.00,,,0.00,Wunderground v.1.15,2013-04-11 20:27:00,
2013-04-11 16:32:00,73.9,61.0,29.85,SSE,167,0.0,5.0,64,0.00,,,0.00,Wunderground v.1.15,2013-04-11 20:32:00,
2013-04-11 16:37:00,73.8,61.3,29.85,South,184,0.0,5.0,65,0.00,,,0.00,Wunderground v.1.15,2013-04-11 20:37:00,
2013-04-11 16:42:00,73.8,61.3,29.84,South,185,1.0,2.0,65,0.00,,,0.00,Wunderground v.1.15,2013-04-11 20:42:00,
2013-04-11 16:47:00,73.8,61.3,29.84,SSE,166,0.0,6.0,65,0.00,,,0.00,Wunderground v.1.15,2013-04-11 20:47:00,
2013-04-11 16:52:00,73.6,61.5,29.85,SSE,148,2.0,7.0,66,0.00,,,0.00,Wunderground v.1.15,2013-04-11 20:52:00,
2013-04-11 16:57:00,73.3,61.3,29.85,South,169,3.0,12.0,66,0.00,,,0.00,Wunderground v.1.15,2013-04-11 20:57:00,
2013-04-11 17:02:00,73.2,61.2,29.85,South,175,2.0,5.0,66,0.00,,,0.00,Wunderground v.1.15,2013-04-11 21:02:00,
2013-04-11 17:07:00,73.1,61.5,29.85,SSE,167,1.0,9.0,67,0.00,,,0.00,Wunderground v.1.15,2013-04-11 21:07:00,
2013-04-11 17:12:00,73.1,61.1,29.84,South,181,4.0,5.0,66,0.00,,,0.00,Wunderground v.1.15,2013-04-11 21:12:00,
2013-04-11 17:17:00,73.1,61.1,29.84,SSW,193,4.0,7.0,66,0.00,,,0.00,Wunderground v.1.15,2013-04-11 21:17:00,
2013-04-11 17:22:00,73.1,61.9,29.84,NE,38,0.0,3.0,68,0.00,,,0.00,Wunderground v.1.15,2013-04-11 21:22:00,
2013-04-11 17:27:00,73.1,61.9,29.84,South,189,0.0,3.0,68,0.00,,,0.00,Wunderground v.1.15,2013-04-11 21:27:00,
2013-04-11 17:32:00,73.0,61.4,29.84,South,171,1.0,5.0,67,0.00,,,0.00,Wunderground v.1.15,2013-04-11 21:32:00,
2013-04-11 17:37:00,72.9,61.7,29.84,South,174,4.0,5.0,68,0.00,,,0.00,Wunderground v.1.15,2013-04-11 21:37:00,
2013-04-11 17:42:00,72.7,61.5,29.83,SSE,166,2.0,3.0,68,0.00,,,0.00,Wunderground v.1.15,2013-04-11 21:42:00,
2013-04-11 17:48:00,72.6,61.8,29.83,SSE,166,2.0,6.0,69,0.00,,,0.00,Wunderground v.1.15,2013-04-11 21:48:00,
2013-04-11 17:53:00,72.4,61.7,29.83,South,170,3.0,7.0,69,0.00,,,0.00,Wunderground v.1.15,2013-04-11 21:53:00,
2013-04-11 17:58:00,72.4,62.1,29.83,South,178,0.0,7.0,70,0.00,,,0.00,Wunderground v.1.15,2013-04-11 21:58:00,
2013-04-11 18:03:00,72.4,62.1,29.83,South,179,2.0,3.0,70,0.00,,,0.00,Wunderground v.1.15,2013-04-11 22:03:00,
2013-04-11 18:08:00,72.4,62.1,29.83,South,174,6.0,9.0,70,0.00,,,0.00,Wunderground v.1.15,2013-04-11 22:08:00,
2013-04-11 18:13:00,72.3,62.0,29.83,South,169,3.0,10.0,70,0.00,,,0.00,Wunderground v.1.15,2013-04-11 22:13:00,
2013-04-11 18:18:00,72.3,62.4,29.83,South,181,5.0,10.0,71,0.00,,,0.00,Wunderground v.1.15,2013-04-11 22:18:00,
2013-04-11 18:23:00,72.2,62.3,29.83,SSE,166,0.0,5.0,71,0.00,,,0.00,Wunderground v.1.15,2013-04-11 22:23:00,
2013-04-11 18:28:00,72.1,62.6,29.83,South,171,8.0,11.0,72,0.00,,,0.00,Wunderground v.1.15,2013-04-11 22:28:00,
2013-04-11 18:33:00,72.0,62.9,29.83,SSW,205,0.0,3.0,73,0.00,,,0.00,Wunderground v.1.15,2013-04-11 22:33:00,
2013-04-11 18:38:00,71.8,63.1,29.82,South,171,2.0,4.0,74,0.00,,,0.00,Wunderground v.1.15,2013-04-11 22:38:00,
2013-04-11 18:43:00,71.6,62.9,29.82,SSE,168,3.0,6.0,74,0.00,,,0.00,Wunderground v.1.15,2013-04-11 22:43:00,
2013-04-11 18:48:00,71.4,63.1,29.82,SSE,161,1.0,6.0,75,0.00,,,0.00,Wunderground v.1.15,2013-04-11 22:48:00,
2013-04-11 18:53:00,71.2,63.6,29.83,SSE,162,0.0,2.0,77,0.00,,,0.00,Wunderground v.1.15,2013-04-11 22:53:00,
2013-04-11 18:58:00,70.9,63.3,29.82,East,90,0.0,8.0,77,0.00,,,0.00,Wunderground v.1.15,2013-04-11 22:58:00,
2013-04-11 19:03:00,70.6,63.4,29.82,South,170,2.0,5.0,78,0.00,,,0.00,Wunderground v.1.15,2013-04-11 23:03:00,
2013-04-11 19:08:00,70.4,63.6,29.82,SSE,162,2.0,5.0,79,0.00,,,0.00,Wunderground v.1.15,2013-04-11 23:08:00,
2013-04-11 19:13:00,70.1,63.6,29.82,SSE,164,4.0,7.0,80,0.00,,,0.00,Wunderground v.1.15,2013-04-11 23:13:00,
2013-04-11 19:18:00,69.8,63.7,29.82,South,174,0.0,7.0,81,0.00,,,0.00,Wunderground v.1.15,2013-04-11 23:18:00,
2013-04-11 19:23:00,69.6,63.9,29.82,SSE,168,1.0,3.0,82,0.00,,,0.00,Wunderground v.1.15,2013-04-11 23:23:00,
2013-04-11 19:28:00,69.3,63.9,29.82,South,171,5.0,5.0,83,0.00,,,0.00,Wunderground v.1.15,2013-04-11 23:28:00,
2013-04-11 19:33:00,69.1,63.7,29.82,South,174,2.0,3.0,83,0.00,,,0.00,Wunderground v.1.15,2013-04-11 23:33:00,
2013-04-11 19:38:00,69.0,63.3,29.81,South,184,1.0,10.0,82,0.00,,,0.00,Wunderground v.1.15,2013-04-11 23:38:00,
2013-04-11 19:43:00,69.0,62.9,29.81,South,185,2.0,6.0,81,0.00,,,0.00,Wunderground v.1.15,2013-04-11 23:43:00,
2013-04-11 19:48:00,69.1,63.0,29.80,South,172,2.0,10.0,81,0.00,,,0.00,Wunderground v.1.15,2013-04-11 23:48:00,
2013-04-11 19:53:00,69.2,63.1,29.80,SSE,163,3.0,7.0,81,0.00,,,0.00,Wunderground v.1.15,2013-04-11 23:53:00,
2013-04-11 19:58:00,69.2,63.5,29.80,SE,146,0.0,7.0,82,0.00,,,0.00,Wunderground v.1.15,2013-04-11 23:58:00,
2013-04-11 20:03:00,69.1,63.7,29.80,SSE,162,6.0,6.0,83,0.00,,,0.00,Wunderground v.1.15,2013-04-12 00:03:00,
2013-04-11 20:08:00,68.9,63.9,29.80,SSE,160,2.0,11.0,84,0.00,,,0.00,Wunderground v.1.15,2013-04-12 00:08:00,
2013-04-11 20:13:00,68.5,64.1,29.79,South,182,0.0,7.0,86,0.00,,,0.00,Wunderground v.1.15,2013-04-12 00:13:00,
2013-04-11 20:18:00,68.1,64.1,29.79,South,184,0.0,7.0,87,0.00,,,0.00,Wunderground v.1.15,2013-04-12 00:18:00,
2013-04-11 20:23:00,67.8,63.8,29.78,South,178,0.0,5.0,87,0.00,,,0.00,Wunderground v.1.15,2013-04-12 00:23:00,
2013-04-11 20:28:00,67.7,64.0,29.78,South,173,6.0,7.0,88,0.00,,,0.00,Wunderground v.1.15,2013-04-12 00:28:00,
2013-04-11 20:33:00,67.6,64.2,29.78,South,186,1.0,19.0,89,0.00,,,0.00,Wunderground v.1.15,2013-04-12 00:33:00,
2013-04-11 20:38:00,67.4,64.0,29.78,SSW,196,2.0,19.0,89,0.00,,,0.00,Wunderground v.1.15,2013-04-12 00:38:00,
2013-04-11 20:43:00,67.4,64.0,29.78,SSE,153,5.0,13.0,89,0.00,,,0.00,Wunderground v.1.15,2013-04-12 00:43:00,
2013-04-11 20:48:00,67.4,64.0,29.79,SSE,160,4.0,13.0,89,0.00,,,0.00,Wunderground v.1.15,2013-04-12 00:48:00,
2013-04-11 20:53:00,67.3,64.6,29.79,SSW,209,0.0,10.0,91,3.49,,,0.05,Wunderground v.1.15,2013-04-12 00:53:00,
2013-04-11 20:58:00,66.8,65.0,29.79,South,180,0.0,10.0,94,0.15,,,0.09,Wunderground v.1.15,2013-04-12 00:58:00,
2013-04-11 21:03:00,66.3,64.8,29.79,South,169,2.0,4.0,95,0.07,,,0.09,Wunderground v.1.15,2013-04-12 01:03:00,
2013-04-11 21:08:00,65.8,64.6,29.79,SSE,168,0.0,4.0,96,0.21,,,0.11,Wunderground v.1.15,2013-04-12 01:08:00,
2013-04-11 21:13:00,65.4,64.5,29.79,SSE,168,0.0,3.0,97,0.49,,,0.14,Wunderground v.1.15,2013-04-12 01:13:00,
2013-04-11 21:18:00,65.1,64.5,29.78,South,180,0.0,3.0,98,0.12,,,0.15,Wunderground v.1.15,2013-04-12 01:18:00,
2013-04-11 21:23:00,64.9,64.6,29.79,South,169,0.0,7.0,99,2.40,,,0.24,Wunderground v.1.15,2013-04-12 01:23:00,
2013-04-11 21:28:00,64.7,64.4,29.78,South,169,0.0,7.0,99,0.22,,,0.28,Wunderground v.1.15,2013-04-12 01:28:00,
2013-04-11 21:33:00,64.5,64.2,29.79,South,177,0.0,4.0,99,0.08,,,0.28,Wunderground v.1.15,2013-04-12 01:33:00,
2013-04-11 21:38:00,64.4,64.4,29.79,South,175,1.0,4.0,100,0.08,,,0.29,Wunderground v.1.15,2013-04-12 01:38:00,
2013-04-11 21:43:00,64.3,64.3,29.79,South,169,2.0,7.0,100,0.09,,,0.30,Wunderground v.1.15,2013-04-12 01:43:00,
2013-04-11 21:48:00,64.3,64.3,29.79,ENE,59,2.0,7.0,100,0.42,,,0.35,Wunderground v.1.15,2013-04-12 01:48:00,
2013-04-11 21:53:00,64.2,64.2,29.79,SSW,205,7.0,13.0,100,0.09,,,0.35,Wunderground v.1.15,2013-04-12 01:53:00,
2013-04-11 21:58:00,64.2,64.2,29.79,ESE,102,1.0,13.0,100,0.09,,,0.36,Wunderground v.1.15,2013-04-12 01:58:00,
2013-04-11 22:03:00,64.3,64.3,29.79,South,171,1.0,7.0,100,0.06,,,0.36,Wunderground v.1.15,2013-04-12 02:03:00,
2013-04-11 22:08:00,64.3,64.3,29.78,ESE,117,2.0,7.0,100,0.04,,,0.36,Wunderground v.1.15,2013-04-12 02:08:00,
2013-04-11 22:13:00,64.3,64.3,29.78,SE,146,0.0,6.0,100,0.59,,,0.41,Wunderground v.1.15,2013-04-12 02:13:00,
2013-04-11 22:18:00,64.3,64.3,29.79,SSE,163,0.0,6.0,100,0.25,,,0.43,Wunderground v.1.15,2013-04-12 02:18:00,
2013-04-11 22:23:00,64.3,64.3,29.78,South,178,1.0,5.0,100,0.24,,,0.48,Wunderground v.1.15,2013-04-12 02:23:00,
2013-04-11 22:28:00,64.3,64.3,29.78,South,178,0.0,5.0,100,0.27,,,0.51,Wunderground v.1.15,2013-04-12 02:28:00,
2013-04-11 22:33:00,64.3,64.3,29.78,SW,226,0.0,2.0,100,0.08,,,0.51,Wunderground v.1.15,2013-04-12 02:33:00,
2013-04-11 22:38:00,64.3,64.3,29.78,South,177,0.0,4.0,100,0.05,,,0.52,Wunderground v.1.15,2013-04-12 02:38:00,
2013-04-11 22:43:00,64.3,64.3,29.78,SSE,166,0.0,4.0,100,0.05,,,0.52,Wunderground v.1.15,2013-04-12 02:43:00,
2013-04-11 22:48:00,64.3,64.3,29.78,SSE,163,0.0,4.0,100,0.05,,,0.52,Wunderground v.1.15,2013-04-12 02:48:00,
2013-04-11 22:53:00,64.3,64.3,29.78,South,170,0.0,9.0,100,0.04,,,0.52,Wunderground v.1.15,2013-04-12 02:53:00,
2013-04-11 22:58:00,64.3,64.3,29.78,SSE,164,2.0,9.0,100,0.00,,,0.52,Wunderground v.1.15,2013-04-12 02:58:00,
2013-04-11 23:03:00,64.4,64.4,29.78,South,171,1.0,12.0,100,0.00,,,0.53,Wunderground v.1.15,2013-04-12 03:03:00,
2013-04-11 23:08:00,64.5,64.5,29.78,South,180,3.0,12.0,100,0.23,,,0.55,Wunderground v.1.15,2013-04-12 03:08:00,
2013-04-11 23:13:00,64.5,64.5,29.77,South,191,3.0,7.0,100,0.23,,,0.57,Wunderground v.1.15,2013-04-12 03:13:00,
2013-04-11 23:18:00,64.5,64.5,29.76,South,172,2.0,8.0,100,0.08,,,0.57,Wunderground v.1.15,2013-04-12 03:18:00,
2013-04-11 23:23:00,64.6,64.6,29.76,South,184,0.0,9.0,100,0.05,,,0.57,Wunderground v.1.15,2013-04-12 03:23:00,
2013-04-11 23:28:00,64.7,64.7,29.76,South,178,0.0,10.0,100,0.00,,,0.57,Wunderground v.1.15,2013-04-12 03:28:00,
2013-04-11 23:33:00,64.8,64.8,29.76,SSW,209,6.0,9.0,100,0.37,,,0.62,Wunderground v.1.15,2013-04-12 03:33:00,
2013-04-11 23:38:00,64.8,64.8,29.75,SSE,165,1.0,9.0,100,0.09,,,0.62,Wunderground v.1.15,2013-04-12 03:38:00,
2013-04-11 23:44:00,64.8,64.8,29.76,South,182,0.0,3.0,100,0.08,,,0.63,Wunderground v.1.15,2013-04-12 03:44:00,
2013-04-11 23:49:00,64.8,64.8,29.76,South,178,5.0,5.0,100,0.08,,,0.64,Wunderground v.1.15,2013-04-12 03:49:00,
2013-04-11 23:54:00,64.8,64.8,29.76,SSW,196,1.0,2.0,100,0.08,,,0.64,Wunderground v.1.15,2013-04-12 03:54:00,
2013-04-11 23:59:00,64.7,64.7,29.75,South,183,1.0,6.0,100,0.32,,,0.01,Wunderground v.1.15,2013-04-12 03:59:00,